Regional Weather Roundup
Issued by NWS Jackson, KY

Home | Current Version | Previous Version | Graphics & Text | Print | Product List | Glossary On
Versions: 1 2 3 4 5 6 7 8 9 10 11 12 13 14 15 16 17 18 19 20 21 22 23 24 25 26 27 28 29 30 31 32 33 34 35 36 37 38 39 40 41 42 43 44 45 46 47 48 49 50
692
ASUS43 KJKL 121410
RWRJKL

EAST KENTUCKY HOURLY WEATHER ROUNDUP
NATIONAL WEATHER SERVICE JACKSON KY
900 AM EST FRI FEB 12 2016

NOTE: "FAIR" INDICATES FEW OR NO CLOUDS BELOW 12,000 FEET WITH
NO SIGNIFICANT WEATHER AND/OR OBSTRUCTIONS TO VISIBILITY.

* THESE REPORTS ARE NOT UNDER NWS QUALITY CONTROL AND MAY NOT
  REPORT WEATHER SUCH AS PRECIPITATION AND FOG.

KYZ079-080-083-085-087-088-110-112-115-119-120-121500
...EASTERN KENTUCKY...

CITY           SKY/WX    TMP DP  RH WIND       PRES   REMARKS
JACKSON        CLOUDY    23  11  60 CALM      30.13F
LONDON         LGT SNOW  23  19  85 SE3       30.13F VSB 1
SOMERSET*      FLURRIES  25  21  86 CALM      30.17S
MONTICELLO*    LGT SNOW  27  23  86 N12       30.18R VSB 1   WCI  16
WILLIAMSBURG*  CLOUDY    25  25 100 CALM      30.14F
MIDDLESBORO*   LGT SNOW  28  24  86 CALM      30.15F
HARLAN APT*    CLOUDY    27  19  74 CALM      30.12F
HAZARD APT*    CLOUDY    21  12  68 CALM      30.14F
BLACK MTN*       N/A     21  21 100 S7          N/A  WCI  13
BIG SANDY*     CLOUDY    22  13  69 CALM      30.14S
MOREHEAD APT*  CLOUDY    21   9  58 CALM      30.18S
$$

KYZ035-036-041-042-044-050-067-078-099-121500
...CENTRAL KENTUCKY...

CITY           SKY/WX    TMP DP  RH WIND       PRES   REMARKS
MT STERLING*   CLOUDY    23  12  63 CALM      30.18S
DANVILLE*      CLOUDY    27  18  69 CALM      30.16S
RICHMOND*      CLOUDY    25  16  68 NE3       30.14F
LEXINGTON      CLOUDY    25  14  63 SE3       30.15F
FRANKFORT      CLOUDY    26  15  63 VRB3      30.16F
$$

KYZ091>093-OHZ055-061-077-WVZ005-015-034-035-042-121500
...SOUTHERN OHIO/WEST VIRGINIA...

CITY           SKY/WX    TMP DP  RH WIND       PRES   REMARKS
COVINGTON      CLOUDY    21  10  62 SW5       30.17S WCI  15
COLUMBUS       CLOUDY    13   5  70 S7        30.17F WCI   3
DAYTON         CLOUDY    18   9  68 SW6       30.15S WCI  10
WILMINGTON     CLOUDY    17   7  64 S6        30.14F WCI   9
HUNTINGTON     CLOUDY    19   7  59 CALM      30.16F
CHARLESTON     PTSUNNY   17   9  70 CALM      30.16F
PINEVILLE*       N/A     21  10  62 MISG      30.16S
BECKLEY        CLOUDY    18   7  62 SE3       30.05F
$$

VAZ002-007-008-TNZ017-027-036-066-071-121500
...SOUTHWEST VIRGINIA/EAST TENNESSEE...

CITY           SKY/WX    TMP DP  RH WIND       PRES   REMARKS
BRISTOL        LGT SNOW  29  17  61 S3        30.13S VSB 1
KNOXVILLE      SNOW      29  28  96 W3        30.16R VSB 1/2
OAK RIDGE      LGT SNOW  30  27  88 CALM      30.18S FOG
CROSSVILLE     LGT SNOW  31  28  89 VRB3      30.11F FOG
NASHVILLE      CLOUDY    34  23  64 CALM      30.19S
$$

...KEY TO REMARKS...
VSB - VISIBILITY IN MILES
WCI - WIND CHILL INDEX
HX  - HEAT INDEX

$$




USA.gov is the U.S. government's official web portal to all federal, state and local government web resources and services.